Location: Guadanolo
(41.9167°N, 12.9333°E)
Time: 03:20:04
(UTC+00:00)

Cosmos 2237 Rocket - Pass Details

Date: 16 September 2019
Orbit: 833 x 851 km, 71.0° (Epoch: 15 October)

Event Time Altitude Azimuth Distance (km) Brightness Sun altitude
Rises 18:29:18 0° 344° (NNW) 3,423 5.8 -14.1°
Reaches altitude 10° 18:32:06 10° 355° (N) 2,485 4.9 -14.6°
Maximum altitude 18:37:01 29° 55° (NE) 1,524 3.2 -15.5°
Enters shadow 18:39:09 23° 90° (E) 1,746 3.3 -15.8°
